This is the latest recevied weather packets stored in our database for station/object F6BIJ-13. If no packets are shown the sender has not sent any weather packets the latest 10 day(s).
| Time | Temp. | Humidity | Pressure | Rain* | Wind** | Luminosity | Snow |
|---|---|---|---|---|---|---|---|
| 1788339997 | 25° C | 50% | 1022 hPa | 0 mm | - | - | - |
| 1788339996 | 25° C | 50% | 1022 hPa | 0 mm | - | - | - |
| 1788339636 | 24.44° C | 53% | 1022 hPa | 0 mm | - | - | - |
| 1788339277 | 22.78° C | 56% | 1022 hPa | 0 mm | - | - | - |
| 1788338916 | 22.78° C | 57% | 1022 hPa | 0 mm | - | - | - |
| 1788338557 | 22.22° C | 58% | 1022 hPa | 0 mm | - | - | - |
| 1788338196 | 21.67° C | 60% | 1022 hPa | 0 mm | - | - | - |
| 1788337836 | 22.22° C | 56% | 1022 hPa | 0 mm | - | - | - |
| 1788337477 | 22.22° C | 57% | 1022 hPa | 0 mm | - | - | - |
| 1788337117 | 21.67° C | 59% | 1022 hPa | 0 mm | - | - | - |
| 1788336757 | 21.67° C | 60% | 1022 hPa | 0 mm | - | - | - |
| 1788336396 | 21.67° C | 61% | 1022 hPa | 0 mm | - | - | - |
| 1788336037 | 21.11° C | 61% | 1022 hPa | 0 mm | - | - | - |
| 1788335676 | 21.67° C | 63% | 1022 hPa | 0 mm | - | - | - |
| 1788335317 | 20.56° C | 71% | 1022 hPa | 0 mm | - | - | - |
| 1788334957 | 19.44° C | 74% | 1022 hPa | 0 mm | - | - | - |
| 1788334596 | 18.89° C | 75% | 1022 hPa | 0 mm | - | - | - |
| 1788334236 | 18.89° C | 76% | 1022 hPa | 0 mm | - | - | - |
| 1788333877 | 18.89° C | 76% | 1022 hPa | 0 mm | - | - | - |
| 1788333516 | 18.33° C | 76% | 1022 hPa | 0 mm | - | - | - |
| 1788333156 | 18.33° C | 77% | 1022 hPa | 0 mm | - | - | - |
| 1788332796 | 18.33° C | 80% | 1022 hPa | 0 mm | - | - | - |
| 1788332436 | 17.78° C | 78% | 1022 hPa | 0 mm | - | - | - |
| 1788332076 | 17.78° C | 81% | 1022 hPa | 0 mm | - | - | - |
| 1788331717 | 17.22° C | 81% | 1022 hPa | 0 mm | - | - | - |
* Rain latest 24 hours (hover to see other rain measurements)
** Current wind speed in m/s (hover to see current wind gust speed)